Regional Weather Roundup
Issued by NWS

Home | Current Version | Previous Version | Graphics & Text | Print | Product List | Glossary On
Versions: 1 2 3 4 5 6 7 8 9 10 11 12 13 14 15 16 17 18 19 20 21 22 23 24 25 26 27 28 29 30 31 32 33 34 35 36 37 38 39 40 41 42 43 44 45 46 47 48 49 50
000
ASUS43 KLOT 290008
RWRIL

ILLINOIS REGIONAL WEATHER ROUNDUP
NATIONAL WEATHER SERVICE CHICAGO/ROMEOVILLE IL
700 PM CDT SUN AUG 28 2016

NOTE: "FAIR" INDICATES FEW OR NO CLOUDS BELOW 12,000 FEET WITH NO
SIGNIFICANT WEATHER AND/OR OBSTRUCTIONS TO VISIBILITY.

* THESE STATIONS ARE NOT UNDER NWS QUALITY CONTROL. THEY ALSO MAY NOT
  REPORT WEATHER SUCH AS PRECIPITATION OR FOG.

ILZ001-002-007-009-015-016-024-290100-
NORTHWEST ILLINOIS

CITY           SKY/WX    TMP DP  RH WIND       PRES   REMARKS
MOLINE         CLOUDY    74  70  87 E10       30.16R
6HR MIN TEMP:  74; 6HR MAX TEMP:  89; 6HR PCP:  0.02;

STERLING*      LGT RAIN  73  72  96 N6        30.16F
SAVANNA*       CLOUDY    74  69  83 SW5       30.16S
$$

ILZ003-004-008-010-011-017-018-290100-
NORTH CENTRAL ILLINOIS

CITY           SKY/WX    TMP DP  RH WIND       PRES   REMARKS
ROCKFORD       CLOUDY    77  68  73 S7        30.17S
6HR MIN TEMP:  77; 6HR MAX TEMP:  87;

FREEPORT*      PTCLDY    75  67  77 S8        30.19R
ROCHELLE*      CLOUDY    73  72  96 CALM      30.17F
DE KALB*       CLOUDY    73  70  89 S3        30.19S
$$

ILZ005-006-012>014-019>023-290100-
NORTHEAST ILLINOIS

CITY           SKY/WX    TMP DP  RH WIND       PRES   REMARKS
CHICAGO-OHARE  CLOUDY    75  68  78 E8        30.17S
6HR MIN TEMP:  75; 6HR MAX TEMP:  83;

CHICAGO-MIDWAY CLOUDY    76  68  76 NE10      30.17S
6HR MIN TEMP:  76; 6HR MAX TEMP:  83;

AURORA         CLOUDY    77  71  82 CALM      30.17S
6HR MIN TEMP:  77; 6HR MAX TEMP:  88;

LANSING*       CLOUDY    74  72  94 NE6       30.17F
JOLIET*        CLOUDY    76  74  93 NE3       30.16F
WAUKEGAN       MOCLDY    72  68  87 NE6       30.18S
6HR MIN TEMP:  72; 6HR MAX TEMP:  76;

DUPAGE AIRPORT CLOUDY    78  69  73 E5        30.17R HX  80
6HR MIN TEMP:  78; 6HR MAX TEMP:  86;

KANKAKEE*      DRIZZLE   73  71  94 NE3       30.16F
WHEELING       CLOUDY    74  68  81 E6        30.18F
6HR MIN TEMP:  74; 6HR MAX TEMP:  80;

MORRIS*        LGT RAIN  73  70  92 CALM      30.16S
ROMEOVILLE*    CLOUDY    75  73  92 NE5       30.16F
$$

LMZ740>746-290100-
SOUTHERN LAKE MICHIGAN

STATION/POSITION SKY/WX   TEMP    WIND        PRES    VSBY  WAVE
                          AIR SEA DIR/SP/G                  HT/PER
                          (F)     (DEG/KT/KT) (MB)    (MI)  (FT/S)
SOUTHERN BUOY              73 75   50/  8/  8 1021.4F         1
WILMETTE HARBOR            73 71   80/  6/  8   N/A           1/ 3
HARRISON CRIB              74      50/  9/  9   N/A
BURNHAM HARBOR             73      20/  4/  6   N/A
CALUMET HARBOR             73      50/  5/  6 1021.6R
BURNS HARBOR               75      70/  8/ 11 1022.0R
MICHIGAN CITY              74      30/ 11/ 12   N/A
MICHIGAN CITY 6N           75 77   40/ 10/ 12   N/A           1/ 3
ST. JOSEPH                 75 75   20/  8/ 10 1021.6R         2/ 3
$$

ILZ025>027-034>036-040-047-049-050-058-095>099-290100-
WEST-CENTRAL ILLINOIS

CITY           SKY/WX    TMP DP  RH WIND       PRES   REMARKS
QUINCY         PTCLDY    83  73  72 NE6       30.11R HX  89
GALESBURG*     PTCLDY    74  67  79 E6        30.15R
MACOMB*        CLOUDY    78  69  73 E13G18    30.16R
JACKSONVILLE*  CLEAR     82  75  78 NE6       30.10F HX  89
PITTSFIELD*    CLEAR     83  77  82 N5        30.12S HX  91
$$

ILZ028>032-037-038-041>044-048-051>054-059>061-290100-
CENTRAL ILLINOIS

CITY           SKY/WX    TMP DP  RH WIND       PRES   REMARKS
PONTIAC        LGT RAIN  74  73  95 N7        30.14F
BLOOMINGTON    PTCLDY    73  69  87 SE5       30.15F
DECATUR        PTCLDY    86  74  67 NE6       30.12F HX  94
PEORIA         PTCLDY    76  71  85 E5        30.13F
6HR MIN TEMP:  74; 6HR MAX TEMP:  88;

LACON*         PTCLDY    73  71  92 CALM      30.13S
LINCOLN*       PTCLDY    77  73  87 NE5       30.13F
SPRINGFIELD    CLEAR     82  73  74 NE15      30.11F HX  87
6HR MIN TEMP:  77; 6HR MAX TEMP:  90; 6HR PCP:  0.27;

TAYLORVILLE    MOCLDY    83  73  72 SE3       30.11S HX  89
6HR MIN TEMP:  83; 6HR MAX TEMP:  89;

$$

ILZ033-039-045-046-055>057-062-063-290100-
EAST-CENTRAL ILLINOIS

CITY           SKY/WX    TMP DP  RH WIND       PRES   REMARKS
CHAMPAIGN      CLOUDY    81  71  71 NE9       30.14S HX  85
RANTOUL*       PTCLDY    82  78  89 N6        30.14F HX  90
MATTOON        CLEAR     84  75  74 CALM      30.11F HX  92
PARIS*         CLEAR     84  80  87 CALM      30.13F HX  96
$$

ILZ079-100>102-290100-
SOUTHWEST ILLINOIS

CITY           SKY/WX    TMP DP  RH WIND       PRES   REMARKS
ALTON          PTCLDY    84  73  70 E6        30.09S HX  91
BELLEVILLE     CLEAR     88  73  61 E5        30.07S HX  95
CAHOKIA*       CLEAR     88  72  58 SE3       30.07S HX  94
SPARTA*        CLEAR     85  77  76 CALM      30.09S HX  96
$$

ILZ064>066-069>071-074>076-080>082-084>086-088>090-092>094-290100-
SOUTH-CENTRAL ILLINOIS

CITY           SKY/WX    TMP DP  RH WIND       PRES   REMARKS
CARBONDALE     CLEAR     85  78  80 NE3       30.08R HX  96
6HR MIN TEMP:  85; 6HR MAX TEMP:  91;

CAIRO*         CLEAR     86  76  71 E3        30.06R HX  95
EFFINGHAM*     PTCLDY    85  77  75 CALM      30.12S HX  95
MARION         PTCLDY    88  77  70 E3        30.09R HX 100
MT. VERNON     CLEAR     84  73  70 CALM      30.10R HX  91
CENTRALIA*     CLEAR     86  78  77 E3        30.08S HX  98
SALEM*         PTCLDY    86  75  69 NE7       30.10S HX  95
METROPOLIS*    CLEAR     86  76  71 CALM      30.09R HX  96
$$

ILZ067-068-072-073-078-083-087-091-290100-
SOUTHEAST ILLINOIS

CITY           SKY/WX    TMP DP  RH WIND       PRES   REMARKS
LAWRENCEVILLE  PTCLDY    85  77  77 NE5       30.10S HX  95
FLORA*         PTCLDY    85  75  72 CALM      30.10S HX  94
FAIRFIELD*     CLEAR     83  76  79 CALM      30.09S HX  92
HARRISBURG*    CLEAR     87  76  71 CALM      30.09R HX  98
ROBINSON*      PTCLDY    82  77  86 NE5       30.11F HX  89
CARMI*         CLEAR     84  80  86 CALM      30.08S HX  97
$$

ABBREVIATIONS USED IN REMARKS
   TC - TEMPERATURE IN CELSIUS
  WCI - WIND CHILL INDEX
   HX - HEAT INDEX
  VSB - VISIBILITY
$$





USA.gov is the U.S. government's official web portal to all federal, state and local government web resources and services.